Location: Ferma
(41.9500°N, 44.5167°E)
Time: 09:14:36
(UTC+00:00)

Cosmos 220 Rocket - Pass Details

Date: 30 May 2022
Orbit: 572 x 614 km, 74.0° (Epoch: 02 July)

Event Time Altitude Azimuth Distance (km) Brightness Sun altitude
Exits shadow 21:33:44 12° 286° (WNW) 1,752 6.4 -25.7°
Maximum altitude 21:34:58 13° 304° (NW) 1,678 6.5 -25.7°
Drops below altitude 10° 21:37:00 10° 334° (NNW) 1,886 7.2 -25.6°
Sets 21:40:20 0° 2° (N) 2,793 8.7 -25.5°
